Wenatchee, WA
on Thursday, January 10, 2013

Thursday
Previous Day Next Day
Daily Summary
 ActualAverageRecord
Temperature
Mean Temperature °F 27°F  
Max Temperature 34°F 32°F 54°F (1983)
Min Temperature 20°F 22°F 0°F (1974)
Degree Days
Heating Degree Days 38 38  
Month to date heating degree days 393 389  
Since 1 July heating degree days 3056 3487  
Cooling Degree Days 0 0  
Month to date cooling degree days 0 0  
Year to date cooling degree days 0 0  
Moisture
Dew Point 18°F   
Average Humidity 60    
Maximum Humidity 68    
Minimum Humidity 50    
Precipitation
Precipitation 0.07 in 0.07 in 0.48 in (1979)
Month to date precipitation 0.87 0.71  
Year to date precipitation 0.87 0.71  
Snow
Snow 1.50 in 0.60 in in ()
Month to date snowfall 10.4 6.1  
Since 1 July snowfall 40.7 31.0  
Snow Depth 4.00 in   
Wind
Wind Speed 7 mph   
Max Wind Speed 12 mph   
Max Gust Speed mph   
Visibility 10 miles   
Events     

Key: T is trace of precipitation, MM is missing value
Source: NWS Daily Summary
Time(PST)TemperatureDew PointHumidity Pressure Visibility Wind DirectionWind SpeedGust SpeedPrecipitationEvents Conditions
12:55 AM 32.0°F 21.0°F 64% 29.83 in 10.0 miles NW 9.2 mph - N/A   Scattered Clouds
1:55 AM 34.0°F 21.0°F 59% 29.84 in 10.0 miles WNW 11.5 mph - N/A   Overcast
2:55 AM 30.9°F 21.0°F 67% 29.86 in 10.0 miles West 8.1 mph - N/A   Mostly Cloudy
3:55 AM 30.0°F 19.0°F 64% 29.87 in 10.0 miles WNW 11.5 mph - N/A   Clear
4:55 AM 30.9°F 19.0°F 61% 29.87 in 10.0 miles NW 5.8 mph - N/A   Scattered Clouds
5:55 AM 30.0°F 19.0°F 64% 29.88 in 10.0 miles WNW 8.1 mph - N/A   Mostly Cloudy
6:55 AM 28.9°F 18.0°F 64% 29.91 in 10.0 miles NNW 4.6 mph - N/A   Overcast
7:55 AM 32.0°F 19.0°F 59% 29.93 in 10.0 miles NW 4.6 mph - N/A   Mostly Cloudy
8:55 AM 30.9°F 19.0°F 61% 29.95 in 10.0 miles West 3.5 mph - N/A   Partly Cloudy
9:55 AM 32.0°F 19.9°F 61% 29.96 in 10.0 miles Calm Calm - N/A   Clear
10:55 AM 34.0°F 19.9°F 56% 29.95 in 10.0 miles WNW 8.1 mph - N/A   Clear
11:55 AM 36.0°F 21.0°F 55% 29.93 in 10.0 miles NW 8.1 mph - N/A   Clear
12:55 PM 37.0°F 19.9°F 50% 29.92 in 10.0 miles Calm Calm - N/A   Clear
1:55 PM 36.0°F 21.9°F 57% 29.92 in 10.0 miles SE 5.8 mph - N/A   Clear
2:55 PM 35.1°F 21.0°F 57% 29.93 in 10.0 miles SE 10.4 mph - N/A   Clear
3:55 PM 33.1°F 19.0°F 56% 29.95 in 10.0 miles SE 8.1 mph - N/A   Clear
4:55 PM 32.0°F 17.1°F 54% 29.96 in 10.0 miles ESE 8.1 mph - N/A   Clear
5:55 PM 28.9°F 17.1°F 61% 29.98 in 10.0 miles SE 11.5 mph - N/A   Clear
6:55 PM 28.9°F 15.1°F 56% 29.99 in 10.0 miles SE 9.2 mph - N/A   Clear
7:55 PM 28.0°F 14.0°F 56% 30.00 in 10.0 miles ESE 5.8 mph - N/A   Partly Cloudy
8:55 PM 26.1°F 12.9°F 58% 30.01 in 10.0 miles SE 5.8 mph - N/A   Clear
9:55 PM 25.0°F 14.0°F 63% 30.02 in 10.0 miles NE 3.5 mph - N/A   Clear
10:55 PM 24.1°F 12.9°F 62% 30.03 in 10.0 miles Calm Calm - N/A   Clear
11:55 PM 21.9°F 12.9°F 68% 30.04 in 10.0 miles Calm Calm - N/A   Clear
Moon Phase
Jan. 10 Jan. 11 Jan. 18 Jan. 26 Feb. 03
Sunrise:07:46 AM (PST) Moon Rise:06:30 AM (PST)1/10
Sunset:04:31 PM (PST) Moon Set:03:46 PM (PST)1/10

Copyright © 2014 The Weather Underground, Inc.